CAPE
1967 1392 1297 1178 1143 1125 1810 1961 2478 2511 3586 3619 3545 3135 3083 2970 3506 3689 3245 3151 3177 3415 3068 3644 3339 3511 2967 2797 3312 3302 2733 2474 2116 1925 2593 2544 3819 3270 2786 2498 2704 2477 2315
2102 1803 1418 1420 1183 1117 757 2435 2481 3436 4014 4355 3443 3909 2967 2786 2985 3291 3080 2065 3114 3354 3639 3540 3756 3466 4059 3982 3247 3345 2997 3375 2852 2558 2653 2494 2638 2646 3150 4541 3727 2747 2491
2382 2038 1854 1710 1673 1383 923 1586 2570 2179 2799 3060 3759 3105 3322 2759 2592 3106 3173 2839 2900 2945 3187 3706 3709 3996 4130 3954 4224 3810 3757 3627 3292 2903 2968 3420 2518 2091 2089 2817 3452 3133 3409
2274 2237 2007 1888 1945 1752 1893 1330 1645 2693 2600 3007 2891 3345 3310 3113 2742 2346 2949 3090 3166 2882 3133 3116 3619 3657 3798 4401 4331 4291 4139 4072 3530 3354 2836 2639 2618 2814 3745 3069 2440 2553 3059
1935 2120 2250 2204 2001 2300 2355 2376 2007 2044 2418 2799 3066 3152 3363 3281 2764 2649 2412 2918 3060 3221 3234 3049 3046 3400 3262 3686 3815 4239 4141 4119 3651 3372 3208 2926 2271 2937 2692 2861 2386 2144 2450
1992 2072 2164 2445 2449 2415 2435 2590 2514 2303 2602 2957 3009 3220 3336 3163 2404 1722 1958 1946 2819 2850 2817 2887 3176 2524 2267 2122 2064 2112 2259 3045 3028 3110 2802 2582 2702 3067 2815 2283 2709 2505 3233
2671 2347 2373 2602 2761 2646 2753 2618 2706 2645 2616 3006 3036 3135 3271 3311 2312 1560 1351 1968 2003 2366 2977 2853 2886 2413 2290 2785 2375 1883 1860 1882 1862 2116 2311 2393 2473 2527 3014 3199 3236 3670 3422
2890 3149 2665 2552 2771 3000 2824 2824 2690 2837 2920 2872 3100 3188 3312 3328 2909 2253 1262 1360 2151 2434 2527 2380 2570 2542 2456 2974 3469 3294 2689 2336 2040 1857 1818 2170 2714 3076 3379 3402 3580 3438 3431
2865 3104 3079 2566 2891 3084 3110 2975 2894 2927 3036 3060 3049 3346 3413 3323 2993 2735 2179 1227 1461 1998 2099 2146 2512 3049 2999 2425 1678 1823 1819 1914 1901 1995 2181 2762 2765 2850 3182 3144 2387 3064 3107
2684 3134 3513 2899 2931 3106 3218 3170 3171 3265 3192 3171 3232 3404 3491 3687 3312 2743 2408 1843 1826 1792 2170 2380 2295 2209 2248 2270 2183 2646 2768 2875 3096 3107 3157 2987 3078 3115 3171 3267 3401 3473 3463
3405 2972 3491 3776 3064 3337 3580 3534 3614 3539 3465 3546 3566 3610 4004 3750 3833 3254 2469 2116 2128 2205 2120 2091 2331 2302 2120 1993 2097 2441 2734 2884 3251 3320 3532 3435 3455 3783 4485 4027 4189 3958 3907
3764 3417 3527 3677 3548 3431 3751 3918 3778 3808 3764 3657 3652 3673 3714 3973 3427 3426 3147 2514 2179 2338 2144 1963 1934 1589 1717 1969 1794 1605 1651 2188 2517 2693 2561 2563 2847 3787 4176 4543 4073 4300 3501
3652 3920 3565 3925 3947 3463 3787 3885 4005 3948 3781 3647 3689 3701 3560 3730 3960 3336 3221 3071 2798 2341 2385 2138 1804 1454 1800 2074 2032 1803 1894 2071 2348 2578 2668 2916 3391 4038 4311 4042 3629 3496 3283
4204 4194 4024 3991 4001 3840 3719 3771 3938 3927 3919 3673 3409 3494 3490 3102 3056 3534 2991 2739 2794 2524 2320 2234 2139 1881 1698 2136 2705 2955 2883 2859 2926 2993 3142 3367 4090 3995 4515 3821 3519 3234 2899
3219 4099 4085 3961 3433 3845 3393 3828 3894 3836 3640 3604 3356 3117 3200 3055 2751 2264 2861 2513 2394 2418 2325 2171 2233 2248 1913 2087 3072 3709 3384 3314 3281 3322 3467 3675 3990 4068 4490 3929 3527 3161 2996
2314 2619 3100 3317 3401 3319 3440 3099 3273 3376 2997 3038 3067 2915 2465 2172 2082 2168 2120 2814 2778 2809 3206 3086 2952 2864 2888 2817 2885 3270 3792 3958 4100 3782 4280 4022 3982 4268 4230 3726 3417 3147 2931
1871 1902 2041 2451 2734 3189 3256 2988 2889 2684 2752 2473 2523 2414 2463 2324 2482 2465 2560 2810 3237 3355 3403 3334 3361 3449 3631 3802 3857 4248 3818 3497 3335 3534 4343 4181 3973 3736 3469 3305 3080 2916 2788
1396 1617 1783 1971 2172 2601 3182 3189 3191 2503 2420 2347 2195 2000 2079 2168 2283 2551 2753 2795 2848 2921 3549 3808 4028 4099 4135 4433 4106 3893 3505 3584 3801 3837 4075 4166 3669 3171 3038 3074 2856 3006 2862
957 1233 1756 1869 2020 2273 2597 3160 3256 3332 3201 3014 2883 2198 2206 2275 2221 2286 2360 3028 3349 3538 3630 3335 3211 3406 3759 4492 3965 3641 3462 3760 4322 4435 4264 3902 3379 3139 2857 2596 2788 2801 2681
1043 1251 1350 1458 1758 2043 2059 2405 1870 2623 2759 3490 3188 2753 2108 1974 1804 1659 1568 1719 2648 2836 3032 3318 3641 3762 3715 3803 4118 3957 4033 4614 4953 4801 4302 3542 3053 3244 2533 2751 3067 2994 3002
769 847 834 1165 1461 1545 1470 1954 1616 1463 1790 1370 1773 1961 1875 1752 2001 2277 2623 2038 2280 2375 3054 3085 3260 3409 3886 5047 4960 3838 3812 4174 4601 4095 3469 2872 2355 3001 2534 2664 2938 2622 2301
482 444 577 602 770 1167 1130 1374 1283 1313 963 794 1031 699 1233 1489 1712 1828 1116 1554 2846 3226 3263 3891 3572 3465 3694 4015 4053 4232 4277 4127 3850 3639 3000 2548 2116 2039 2132 2529 2474 2140 1849
112 325 455 361 288 77 499 600 914 491 73 51 16 281 553 125 152 178 90 1149 1160 1819 2309 2448 2971 2742 2544 2715 3314 3118 3196 3152 3286 3239 2759 2212 1870 2227 2192 2344 1972 1566 1353
0 0 2 8 0 5 9 8 6 48 17 6 0 10 240 451 553 452 435 616 855 1035 1801 2335 2311 2048 2591 2293 2496 2833 2977 2787 2609 2572 2718 2482 2338 2074 1911 1584 1446 1253 1181
0 0 0 0 0 0 0 0 1 2 0 0 7 17 88 271 435 494 464 443 468 212 212 712 1458 1549 1551 2122 2207 2504 1985 2339 1695 1620 1801 1450 1653 1378 1085 1006 1204 833 752
0 0 0 0 0 0 0 0 0 0 0 0 4 9 80 104 113 196 310 316 314 269 124 51 448 459 859 1296 1098 1472 1364 1330 1518 1446 1139 1160 1393 1093 873 1326 979 954 815
CIN
-16 -72 -81 -86 -80 -76 -20 -23 -23 -33 -19 -12 -7 -8 -8 -7 -6 -8 -14 -13 -15 -16 -28 -7 -24 -17 -30 -49 -30 -33 -41 -41 -74 -134 -69 -98 -58 -75 -90 -147 -162 -210 -207
-23 -36 -64 -63 -102 -96 -132 -7 -15 -11 -7 -5 -20 -5 -11 -9 -10 -9 -6 -18 -7 -9 -9 -13 -5 -2 -18 -25 -43 -48 -45 -34 -43 -86 -98 -130 -130 -153 -134 -76 -84 -74 -105
-6 -8 -8 -28 -42 -77 -148 -47 -9 -31 -18 -13 -7 -20 -7 -11 -12 -9 -7 -9 -16 -14 -13 -8 -11 -9 -10 -11 -13 -16 -21 -25 -41 -55 -78 -59 -145 -189 -195 -159 -104 -130 -69
-6 -11 -13 -31 -29 -45 -32 -86 -43 -13 -25 -12 -22 -9 -8 -10 -15 -21 -6 -6 -7 -10 -16 -16 -10 -10 -13 -14 -13 -19 -17 -21 -29 -34 -63 -90 -114 -127 -86 -85 -98 -92 -54
-15 -23 -25 -35 -29 -5 -5 -9 -33 -24 -10 -18 -14 -15 -6 -5 -16 -28 -33 -10 -11 -7 -10 -16 -15 -9 -2 -8 -9 -19 -24 -17 -17 -23 -35 -54 -145 -81 -99 -75 -139 -149 -100
-35 -39 -34 -9 -15 -6 -6 -6 -6 -18 -7 -8 -5 -7 -4 -7 -38 -83 -82 -75 -19 -22 -20 -25 -25 -21 -46 -62 -73 -81 -71 -60 -59 -43 -72 -109 -127 -74 -103 -157 -103 -125 -42
-21 -28 -30 -20 -8 -12 -4 -5 -6 -7 -7 -7 -4 -7 -10 -15 -45 -85 -106 -93 -84 -61 -32 -40 -34 -52 -64 -74 -85 -114 -134 -140 -173 -199 -205 -196 -193 -178 -100 -71 -52 -26 -25
-24 -21 -28 -29 -18 -8 -6 -6 -6 -4 -5 -6 -4 -5 -8 -17 -47 -57 -99 -182 -95 -81 -72 -97 -94 -107 -127 -71 -55 -78 -130 -213 -193 -216 -235 -308 -212 -144 -81 -79 -73 -59 -45
-21 -21 -26 -44 -17 -8 -5 -7 -5 -4 -3 -4 -9 -9 -11 -29 -47 -63 -61 -111 -157 -131 -134 -145 -114 -93 -119 -136 -182 -206 -231 -247 -203 -217 -243 -205 -202 -177 -127 -103 -160 -68 -71
-50 -23 -14 -35 -31 -17 -18 -17 -13 -3 -1 -2 -5 -10 -10 -19 -41 -59 -75 -112 -116 -137 -139 -161 -151 -181 -190 -164 -149 -139 -127 -159 -123 -130 -139 -157 -134 -116 -101 -82 -57 -47 -31
-12 -31 -22 -17 -45 -30 -10 -4 -3 -4 -2 -3 -3 -4 -3 -16 -17 -45 -76 -114 -102 -106 -130 -160 -183 -198 -210 -197 -180 -191 -177 -158 -121 -134 -119 -133 -133 -88 -43 -29 -9 -14 -6
-12 -24 -17 -16 -9 -13 -14 -5 -3 -3 -4 -5 -4 -3 -2 -8 -36 -48 -61 -91 -136 -123 -140 -160 -178 -157 -166 -178 -208 -254 -305 -253 -241 -220 -246 -252 -199 -69 -37 -36 -42 -12 -23
-20 -27 -21 -11 -8 -11 -13 -11 -2 -3 -0 -1 -0 -2 -3 -3 -8 -47 -76 -87 -105 -146 -166 -164 -162 -178 -246 -174 -163 -145 -159 -179 -192 -203 -242 -200 -123 -56 -21 -55 -36 -29 -43
-11 -18 -10 -10 -8 -7 -2 -6 -2 -2 -0 -2 -10 -5 -10 -32 -23 -23 -91 -121 -136 -164 -192 -224 -229 -240 -291 -230 -181 -145 -141 -148 -148 -182 -167 -131 -54 -45 -13 -40 -33 -43 -63
-25 -5 -4 -1 -18 -2 -10 -4 -3 -10 -15 -22 -31 -48 -17 -23 -47 -76 -84 -127 -143 -84 -143 -182 -235 -239 -307 -287 -157 -87 -120 -117 -120 -116 -115 -81 -43 -34 -17 -26 -30 -48 -47
-5 -5 -10 -2 -6 -11 -10 -21 -12 -17 -36 -27 -37 -16 -41 -39 -54 -61 -62 -77 -61 -47 -36 -51 -124 -140 -144 -168 -171 -134 -82 -61 -61 -79 -29 -54 -41 -17 -10 -12 -32 -39 -33
-0 -10 -10 -27 -31 -16 -8 -12 -24 -36 -36 -35 -25 -29 -72 -72 -119 -100 -136 -98 -53 -47 -57 -60 -86 -75 -68 -63 -50 -50 -81 -115 -127 -84 -23 -37 -22 -17 -17 -33 -25 -32 -29
-3 -9 -11 -10 -15 -8 -6 -1 -2 -41 -70 -67 -59 -42 -55 -76 -57 -74 -79 -74 -77 -84 -43 -21 -19 -18 -16 -22 -59 -61 -73 -61 -52 -53 -31 -12 -26 -39 -52 -31 -31 -14 -16
-9 -11 -0 -0 -0 -5 -1 -4 -0 -7 -8 -10 -20 -29 -50 -54 -65 -75 -115 -132 -111 -81 -58 -78 -91 -65 -32 -23 -60 -81 -92 -42 -26 -35 -9 -8 -16 -12 -34 -57 -23 -14 -15
-0 -0 -0 -0 -0 -1 -0 -0 -8 -57 -6 -15 -19 -8 -74 -82 -113 -136 -180 -198 -171 -135 -108 -83 -48 -51 -46 -38 -37 -53 -38 -12 -18 -22 -17 -17 -20 -2 -50 -24 -1 -0 -1
-0 -0 -0 -0 -0 -1 -0 -0 -0 -1 -0 -11 -48 -43 -81 -146 -95 -64 -73 -200 -215 -142 -111 -66 -60 -47 -27 -17 -23 -25 -44 -29 -19 -20 -23 -30 -69 -12 -38 -24 -2 -0 -20
-0 -0 -0 -0 -0 -0 -0 -0 -0 -0 -1 -32 -43 -140 -41 -41 -44 -64 -75 -38 -15 -22 -19 -17 -24 -20 -3 -14 -26 -23 -22 -24 -15 -10 -10 -14 -59 -60 -35 -21 -14 -11 -23
-1 -1 -0 -3 -0 -12 -1 -0 -0 -0 -30 -30 -11 -22 -33 -18 -150 -209 -144 -145 -140 -51 -63 -96 -32 -29 -25 -33 -4 -20 -10 -13 -18 -18 -18 -19 -61 -24 -13 -3 -12 -26 -38
-0 -0 -4 -57 -0 -0 -1 -5 -10 -3 -19 -60 -1 -55 -192 -54 -39 -126 -67 -230 -84 -154 -101 -26 -14 -63 -32 -23 -20 -12 -0 -1 -0 -8 -2 -8 -6 -11 -10 -19 -15 -24 -42
-0 -0 -0 -0 -0 -0 -0 -0 -13 -3 -0 -0 -5 -129 -155 -30 -26 -36 -53 -99 -180 -252 -447 -203 -61 -54 -57 -9 -5 -3 -25 -9 -46 -29 -6 -26 -11 -36 -44 -54 -25 -58 -103
-1 -0 -0 -0 -0 -1 -0 -0 -0 -0 -0 -0 -24 -64 -15 -20 -65 -92 -105 -162 -171 -185 -239 -232 -187 -176 -86 -47 -93 -61 -71 -65 -47 -49 -58 -34 -5 -22 -60 -17 -44 -17 -31
Wind_Speed
20 17 16 15 11 9 11 10 10 10 9 13 10 6 3 1 2 1 3 4 3 2 5 10 7 10 11 13 10 7 6 7 9 8 6 6 7 10 16 20 27 31 35
21 22 18 18 16 11 9 10 10 12 12 13 11 10 6 2 1 3 3 3 1 2 1 7 9 8 6 7 8 7 5 5 4 7 4 6 11 14 18 20 26 24 25
21 21 23 20 18 12 11 10 12 11 11 12 12 9 9 5 3 4 3 3 3 1 4 3 5 8 9 7 5 3 4 3 4 4 5 5 7 11 15 15 15 19 24
20 20 21 20 18 17 15 14 11 14 13 13 10 11 8 7 5 5 7 3 2 2 3 5 4 4 5 6 6 6 4 2 2 2 3 5 8 9 8 9 12 18 22
18 20 19 22 21 22 19 18 15 13 15 14 13 12 9 8 8 9 8 8 5 3 4 5 4 6 3 4 9 9 5 4 3 1 2 4 3 5 6 10 11 12 16
17 18 20 26 25 20 21 19 20 15 16 16 13 13 11 9 9 13 15 10 8 5 4 5 7 7 2 3 5 7 6 7 5 4 3 1 4 6 10 9 12 13 17
12 16 20 23 25 23 22 21 18 17 16 16 15 14 12 9 10 14 17 11 8 6 7 8 6 5 4 4 3 2 5 2 4 1 2 3 3 7 10 11 15 18 17
12 15 18 19 20 25 23 20 17 19 18 18 17 14 15 12 12 12 12 6 4 4 5 5 6 5 7 10 9 7 6 6 6 6 6 7 7 10 13 15 17 17 19
7 10 15 19 19 22 22 20 20 20 21 19 20 17 15 14 15 12 12 6 3 5 6 6 6 7 5 6 7 7 9 9 8 7 7 10 13 14 15 18 17 17 17
10 10 13 17 20 19 19 20 22 21 19 22 20 19 17 16 17 16 15 7 7 9 9 6 3 2 5 9 10 9 7 7 8 6 10 11 14 16 19 24 21 22 20
14 13 15 16 16 18 21 22 21 20 21 21 21 22 20 20 17 21 18 11 9 11 10 8 5 8 9 7 8 8 7 12 11 12 12 14 15 15 20 23 26 28 26
24 19 13 14 17 19 19 21 19 21 20 20 20 22 22 20 19 22 20 13 11 12 10 9 9 6 10 10 7 6 9 17 15 13 11 9 11 14 20 25 27 30 31
26 23 18 17 16 17 18 20 22 20 19 18 20 20 20 23 22 22 20 16 11 14 11 14 24 23 18 13 10 10 15 16 12 5 4 8 12 18 21 29 34 35 34
26 28 27 24 20 17 20 22 22 22 19 17 18 20 22 24 24 25 25 23 14 16 12 12 14 17 15 11 16 12 7 6 7 11 12 14 20 23 27 32 34 36 32
51 35 31 32 25 20 16 20 22 21 21 20 16 20 24 25 25 25 28 27 22 19 22 20 17 17 12 11 11 11 17 15 15 18 19 20 23 27 33 36 36 37 32
51 53 42 36 30 26 22 19 37 24 35 31 24 24 32 39 40 44 36 28 30 34 28 23 23 23 21 20 19 19 21 24 25 25 23 25 28 32 36 40 40 38 32
57 54 51 46 36 35 31 23 22 28 34 34 35 38 30 34 40 43 44 47 37 40 32 29 25 26 28 28 27 33 30 29 26 28 34 35 36 35 39 39 41 38 31
60 57 56 58 53 47 38 32 28 30 27 33 32 35 33 35 39 41 40 45 39 36 33 30 32 33 32 34 37 36 31 32 36 39 38 43 42 39 39 41 39 35 32
59 58 60 60 55 55 48 40 34 38 33 32 37 46 49 47 47 44 37 37 36 34 34 34 35 36 36 41 41 40 38 38 44 46 43 42 40 40 42 42 35 32 32
54 53 62 63 63 65 64 64 56 52 49 44 44 42 46 45 39 38 39 40 38 35 37 40 42 43 43 41 40 40 41 46 52 52 44 39 38 36 36 36 34 32 32
53 51 54 63 62 63 68 63 60 53 39 42 43 47 43 46 45 45 43 45 44 47 56 42 42 48 46 43 41 36 36 36 38 35 35 40 37 30 30 34 34 31 32
52 51 53 59 63 66 63 61 64 63 63 55 53 49 45 51 54 48 60 43 53 51 59 46 47 45 39 42 36 33 33 30 32 34 38 35 35 31 29 31 31 31 32
63 64 64 64 69 nan 69 69 68 75 nan nan nan 65 63 66 59 71 nan 69 71 55 54 60 52 50 48 47 41 37 36 35 31 33 33 35 33 32 31 31 32 34 38
nan nan nan nan nan nan nan nan nan nan nan nan nan nan 73 74 59 45 22 41 37 44 53 52 48 53 51 46 43 42 44 41 38 37 35 37 37 37 37 38 39 39 42
nan nan nan nan nan nan nan nan nan nan nan nan nan nan nan 34 28 34 31 32 47 53 54 52 50 50 51 49 46 44 40 41 40 39 41 39 40 40 45 46 45 42 46
nan nan nan nan nan nan nan nan nan nan nan nan nan nan nan 39 43 45 47 49 52 55 56 nan 57 61 58 55 54 48 45 44 45 41 43 47 47 48 48 47 46 49 49
Wind_Direction
250 251 256 254 257 245 222 225 234 219 220 255 261 264 273 11 66 121 118 144 347 328 131 147 118 137 160 158 164 149 87 72 74 80 63 81 80 60 41 30 19 19 17
249 250 249 246 257 255 244 250 240 232 245 247 258 255 251 250 12 44 42 131 245 304 80 157 164 173 168 170 167 143 121 115 103 106 65 65 62 51 36 27 22 20 10
253 247 250 247 253 259 259 250 254 248 245 254 254 256 250 264 297 334 2 10 131 228 233 230 196 191 191 208 198 188 159 128 112 84 81 51 50 50 39 24 6 11 8
271 255 249 252 253 256 254 259 249 250 257 268 272 259 257 258 284 310 316 335 287 202 263 271 253 250 230 233 229 227 197 162 112 96 68 44 38 37 357 351 358 359 1
280 270 256 247 247 250 249 252 256 256 252 262 276 280 273 268 275 293 292 293 290 247 231 258 241 238 249 257 242 245 241 246 264 281 275 267 297 314 340 344 348 357 350
286 281 257 249 247 244 247 244 251 255 259 269 284 290 288 265 293 307 303 284 273 295 271 236 212 221 226 164 207 215 214 225 218 232 245 256 325 323 310 330 341 341 351
276 274 269 257 254 254 247 246 250 259 261 268 277 286 296 275 284 310 321 296 269 254 268 272 255 236 269 239 256 212 179 237 351 313 304 329 352 329 331 335 335 342 345
294 275 275 266 261 256 254 252 248 250 260 264 269 277 281 275 285 295 323 328 293 278 270 283 285 270 234 240 238 241 241 254 281 287 328 355 348 329 331 336 341 333 340
284 302 282 275 263 257 258 255 254 254 255 261 267 272 278 277 287 296 280 267 324 295 276 272 261 265 287 263 213 202 211 226 237 286 325 331 343 342 324 303 325 331 339
275 286 276 268 266 264 254 253 250 249 251 250 257 265 271 269 272 285 279 251 277 270 277 280 293 356 292 287 236 220 210 230 255 253 263 281 302 311 333 324 321 331 339
230 256 267 274 272 264 253 246 247 253 252 254 255 255 258 266 261 280 290 267 276 278 288 278 262 341 356 0 310 246 247 260 271 278 276 282 299 314 308 315 324 326 326
212 257 261 268 263 257 259 249 247 252 261 260 260 253 254 258 265 269 289 299 280 278 281 263 256 313 341 1 315 295 272 269 265 270 281 300 309 314 304 309 319 312 309
211 247 256 265 262 255 256 244 240 251 255 263 258 255 244 247 244 260 283 287 291 273 273 263 258 250 257 270 292 270 276 273 284 297 326 336 324 314 313 299 295 296 301
206 242 248 259 258 262 244 245 237 247 255 262 259 248 244 235 232 244 247 251 262 271 270 252 243 251 254 256 241 255 259 276 292 306 309 311 307 308 311 312 302 300 302
197 221 244 247 250 253 255 249 240 240 248 255 259 255 243 239 238 239 251 256 258 268 268 268 258 257 255 249 248 260 280 292 306 305 303 303 304 306 302 303 296 293 297
219 214 227 235 246 249 252 238 230 232 250 249 260 248 247 249 245 244 243 273 277 273 266 264 258 257 258 262 271 277 282 289 292 288 291 293 294 297 296 290 290 292 297
220 220 227 224 240 255 248 248 249 238 234 236 257 260 265 262 252 249 250 250 252 267 264 263 257 255 258 264 267 266 269 272 274 276 283 285 285 288 292 292 291 295 296
219 221 226 229 227 234 252 250 252 259 256 247 232 239 251 262 264 264 262 260 253 252 260 258 256 252 251 257 259 261 261 271 280 282 284 286 286 290 295 290 290 294 296
224 225 224 226 226 226 230 252 253 256 253 250 244 240 241 239 239 233 235 245 251 257 260 258 256 254 256 262 265 270 275 274 274 280 279 276 276 284 287 291 290 297 298
223 217 219 224 225 227 227 234 241 239 239 237 240 238 242 241 238 238 240 238 241 243 247 252 254 266 272 279 282 281 277 275 272 273 276 272 276 282 287 291 291 289 291
225 225 217 223 227 226 228 226 235 239 250 244 234 230 238 234 234 233 232 235 245 248 252 249 258 267 273 275 273 276 276 275 279 274 271 277 275 276 282 285 287 288 290
222 225 227 227 226 228 230 231 232 229 231 229 232 226 235 235 235 228 238 232 239 246 256 268 267 270 265 269 269 279 280 277 280 280 276 270 273 277 280 284 286 289 291
223 222 223 227 229 nan 216 234 224 227 nan nan nan 224 222 225 232 233 nan 248 244 237 241 245 249 249 251 257 257 260 264 259 260 271 281 286 283 284 285 285 287 287 290
nan nan nan nan nan nan nan nan nan nan nan nan nan nan 241 239 238 254 249 235 235 235 243 242 244 246 253 256 258 258 258 256 260 261 269 281 283 286 289 289 288 288 288
nan nan nan nan nan nan nan nan nan nan nan nan nan nan nan 224 231 234 230 225 227 240 243 245 247 245 248 247 250 250 253 255 259 265 272 272 284 284 283 283 281 282 288
nan nan nan nan nan nan nan nan nan nan nan nan nan nan nan 226 229 228 225 228 238 245 248 nan 249 247 247 250 247 247 254 256 261 264 270 273 273 277 279 281 282 282 284